• In Hungary
  • List of Countries
  • For 7 days
  • Water Temperature
  • Satellite Maps
  • Weather Map
  • News
  • Weather Widgets
  • user-avatar
    Login

    Hourly Weather Starye Lavki

    Today, 23 October, Tuesday

    Time Temperature Precipitation Wind Pressure Humidity
    00:00 +5°C° 0.5 mm 4 mps 744 mmHg 88%
    01:00 +5°C° 0.5 mm 4 mps 744 mmHg 90%
    02:00 +5°C° 0.5 mm 3 mps 743 mmHg 91%
    03:00 +5°C° 0 mm 3 mps 743 mmHg 92%
    04:00 +4°C° 0 mm 3 mps 743 mmHg 93%
    05:00 +3°C° 0 mm 3 mps 742 mmHg 95%
    06:00 +3°C° 0 mm 3 mps 742 mmHg 94%
    07:00 +2°C° 0 mm 3 mps 742 mmHg 94%
    08:00 +3°C° 0 mm 2 mps 741 mmHg 94%
    09:00 +3°C° 0 mm 3 mps 741 mmHg 87%
    10:00 +5°C° 0 mm 3 mps 740 mmHg 79%
    11:00 +6°C° 0 mm 4 mps 739 mmHg 72%
    12:00 +6°C° 0 mm 4 mps 738 mmHg 71%
    13:00 +6°C° 0 mm 5 mps 737 mmHg 70%
    14:00 +6°C° 0 mm 5 mps 736 mmHg 69%
    15:00 +6°C° 0.1 mm 5 mps 735 mmHg 71%
    16:00 +4°C° 0.1 mm 6 mps 733 mmHg 73%
    17:00 +4°C° 0.1 mm 6 mps 732 mmHg 76%
    18:00 +4°C° 0.1 mm 6 mps 731 mmHg 77%
    19:00 +3°C° 0.1 mm 6 mps 729 mmHg 79%
    20:00 +3°C° 0.1 mm 7 mps 728 mmHg 80%
    21:00 +3°C° 0.6 mm 7 mps 727 mmHg 82%
    22:00 +3°C° 0.6 mm 6 mps 725 mmHg 83%
    23:00 +3°C° 0.6 mm 6 mps 724 mmHg 85%

    Tomorrow, 24 October, Wednesday

    Time Temperature Precipitation Wind Pressure Humidity
    00:00 +4°C° 0.3 mm 6 mps 723 mmHg 86%
    01:00 +5°C° 0.3 mm 5 mps 722 mmHg 87%
    02:00 +5°C° 0.3 mm 5 mps 722 mmHg 88%
    03:00 +5°C° 0.1 mm 4 mps 721 mmHg 89%
    04:00 +5°C° 0.1 mm 4 mps 721 mmHg 89%
    05:00 +5°C° 0.1 mm 3 mps 720 mmHg 90%
    06:00 +5°C° 0.1 mm 3 mps 720 mmHg 90%
    07:00 +4°C° 0.1 mm 3 mps 720 mmHg 91%
    08:00 +4°C° 0.1 mm 3 mps 720 mmHg 91%
    09:00 +4°C° 0.2 mm 3 mps 720 mmHg 88%
    10:00 +5°C° 0.2 mm 3 mps 720 mmHg 85%
    11:00 +5°C° 0.2 mm 3 mps 721 mmHg 81%
    12:00 +5°C° 0.2 mm 3 mps 721 mmHg 79%
    13:00 +6°C° 0.2 mm 4 mps 721 mmHg 77%
    14:00 +6°C° 0.2 mm 4 mps 722 mmHg 75%
    15:00 +5°C° 0.1 mm 3 mps 722 mmHg 77%
    16:00 +5°C° 0.1 mm 3 mps 722 mmHg 79%
    17:00 +4°C° 0.1 mm 3 mps 723 mmHg 81%
    18:00 +4°C° 0 mm 3 mps 724 mmHg 83%
    19:00 +3°C° 0 mm 3 mps 724 mmHg 84%
    20:00 +3°C° 0 mm 3 mps 725 mmHg 86%
    21:00 +3°C° 0 mm 4 mps 725 mmHg 87%
    22:00 +3°C° 0 mm 4 mps 725 mmHg 89%
    23:00 +3°C° 0 mm 4 mps 726 mmHg 90%

    Day after tomorrow, 25 October, Thursday

    Time Temperature Precipitation Wind Pressure Humidity
    00:00 +3°C° 0.1 mm 5 mps 726 mmHg 88%
    01:00 +3°C° 0.1 mm 5 mps 727 mmHg 86%
    02:00 +3°C° 0.1 mm 6 mps 727 mmHg 84%
    03:00 +2°C° 0.2 mm 6 mps 727 mmHg 83%
    04:00 +2°C° 0.2 mm 7 mps 728 mmHg 82%
    05:00 +2°C° 0.2 mm 7 mps 728 mmHg 82%
    06:00 +2°C° 0.1 mm 7 mps 728 mmHg 81%
    07:00 0°C° 0.1 mm 7 mps 729 mmHg 81%
    08:00 0°C° 0.1 mm 7 mps 729 mmHg 81%
    09:00 +1°C° 0 mm 6 mps 729 mmHg 79%
    10:00 +1°C° 0 mm 6 mps 729 mmHg 78%
    11:00 +2°C° 0 mm 6 mps 730 mmHg 76%
    12:00 +2°C° 0 mm 5 mps 730 mmHg 76%
    13:00 +2°C° 0 mm 5 mps 730 mmHg 75%
    14:00 +2°C° 0 mm 5 mps 730 mmHg 74%
    15:00 +3°C° 0 mm 4 mps 730 mmHg 74%
    16:00 +3°C° 0 mm 3 mps 730 mmHg 74%
    17:00 +3°C° 0 mm 3 mps 730 mmHg 74%
    18:00 +2°C° 0 mm 3 mps 730 mmHg 76%
    19:00 +3°C° 0 mm 2 mps 730 mmHg 78%
    20:00 +3°C° 0 mm 2 mps 731 mmHg 80%
    21:00 +2°C° 0 mm 2 mps 731 mmHg 84%
    22:00 +2°C° 0 mm 2 mps 731 mmHg 87%
    23:00 0°C° 0 mm 3 mps 732 mmHg 91%

    26 October, Friday

    Time Temperature Precipitation Wind Pressure Humidity
    00:00 0°C° 0 mm 3 mps 732 mmHg 92%
    01:00 0°C° 0 mm 3 mps 733 mmHg 93%
    02:00 0°C° 0 mm 3 mps 733 mmHg 94%
    03:00 0°C° 0 mm 3 mps 733 mmHg 94%
    04:00 -1°C° 0 mm 3 mps 734 mmHg 94%
    05:00 -1°C° 0 mm 3 mps 734 mmHg 95%
    06:00 0°C° 0 mm 3 mps 734 mmHg 94%
    07:00 -1°C° 0 mm 4 mps 735 mmHg 93%
    08:00 -1°C° 0 mm 4 mps 735 mmHg 91%
    09:00 +1°C° 0 mm 4 mps 735 mmHg 86%
    10:00 +3°C° 0 mm 4 mps 736 mmHg 81%
    11:00 +4°C° 0 mm 4 mps 736 mmHg 76%
    12:00 +4°C° 0 mm 4 mps 736 mmHg 73%
    13:00 +5°C° 0 mm 4 mps 736 mmHg 70%
    14:00 +5°C° 0 mm 4 mps 737 mmHg 67%
    15:00 +5°C° 0 mm 4 mps 737 mmHg 72%
    16:00 +4°C° 0 mm 3 mps 737 mmHg 76%
    17:00 +3°C° 0 mm 3 mps 738 mmHg 81%
    18:00 +4°C° 0 mm 2 mps 738 mmHg 85%
    19:00 +3°C° 0 mm 2 mps 738 mmHg 88%
    20:00 +2°C° 0 mm 2 mps 738 mmHg 92%
    21:00 +2°C° 0 mm 2 mps 739 mmHg 93%
    22:00 +2°C° 0 mm 2 mps 739 mmHg 93%
    23:00 +1°C° 0 mm 2 mps 739 mmHg 94%

    27 October, Saturday

    Time Temperature Precipitation Wind Pressure Humidity
    00:00 +1°C° 0 mm 2 mps 739 mmHg 94%
    01:00 +1°C° 0 mm 2 mps 739 mmHg 94%
    02:00 +1°C° 0 mm 2 mps 739 mmHg 94%
    03:00 0°C° 0 mm 3 mps 739 mmHg 95%
    04:00 +1°C° 0 mm 3 mps 739 mmHg 95%
    05:00 0°C° 0 mm 4 mps 739 mmHg 95%
    06:00 0°C° 0 mm 4 mps 739 mmHg 93%
    07:00 +1°C° 0 mm 5 mps 738 mmHg 91%
    08:00 +2°C° 0 mm 5 mps 738 mmHg 89%
    09:00 +2°C° 0.2 mm 6 mps 738 mmHg 87%
    10:00 +3°C° 0.2 mm 6 mps 737 mmHg 86%
    11:00 +4°C° 0.2 mm 6 mps 737 mmHg 84%
    12:00 +5°C° 0.2 mm 6 mps 737 mmHg 84%
    13:00 +5°C° 0.2 mm 6 mps 737 mmHg 83%
    14:00 +7°C° 0.2 mm 6 mps 736 mmHg 82%
    15:00 +7°C° 0 mm 5 mps 736 mmHg 83%
    16:00 +7°C° 0 mm 5 mps 736 mmHg 84%
    17:00 +7°C° 0 mm 4 mps 736 mmHg 85%
    18:00 +7°C° 0.1 mm 4 mps 736 mmHg 86%
    19:00 +8°C° 0.1 mm 3 mps 736 mmHg 87%
    20:00 +8°C° 0.1 mm 3 mps 736 mmHg 88%
    21:00 +7°C° 0.1 mm 3 mps 736 mmHg 90%
    22:00 +7°C° 0.1 mm 2 mps 736 mmHg 92%
    23:00 +7°C° 0.1 mm 2 mps 736 mmHg 94%

    28 October, Sunday

    Time Temperature Precipitation Wind Pressure Humidity
    00:00 +7°C° 0.1 mm 2 mps 736 mmHg 95%
    01:00 +7°C° 0.1 mm 2 mps 736 mmHg 96%
    02:00 +8°C° 0.1 mm 1 mps 736 mmHg 96%
    03:00 +8°C° 0.2 mm 1 mps 736 mmHg 96%
    04:00 +7°C° 0.2 mm 1 mps 736 mmHg 96%
    05:00 +7°C° 0.2 mm 1 mps 736 mmHg 96%
    06:00 +7°C° 0.5 mm 1 mps 736 mmHg 96%
    07:00 +7°C° 0.5 mm 1 mps 736 mmHg 95%
    08:00 +7°C° 0.5 mm 1 mps 735 mmHg 95%
    09:00 +8°C° 0.9 mm 1 mps 735 mmHg 95%
    10:00 +8°C° 0.9 mm 1 mps 735 mmHg 95%
    11:00 +7°C° 0.9 mm 2 mps 735 mmHg 95%
    12:00 +7°C° 1.8 mm 2 mps 734 mmHg 95%
    13:00 +7°C° 1.8 mm 2 mps 734 mmHg 95%
    14:00 +7°C° 1.8 mm 3 mps 734 mmHg 95%
    15:00 +7°C° 0.2 mm 2 mps 734 mmHg 95%
    16:00 +7°C° 0.2 mm 2 mps 734 mmHg 95%
    17:00 +7°C° 0.2 mm 2 mps 734 mmHg 95%
    18:00 +7°C° 0 mm 3 mps 734 mmHg 93%
    19:00 +5°C° 0 mm 4 mps 734 mmHg 92%
    20:00 +5°C° 0 mm 5 mps 735 mmHg 91%
    21:00 +5°C° 0 mm 5 mps 736 mmHg 88%
    22:00 +3°C° 0 mm 5 mps 737 mmHg 86%
    23:00 +3°C° 0 mm 5 mps 738 mmHg 84%
    Show more